Regional Weather Roundup
Issued by NWS Mobile, AL

Home | Current Version | Previous Version | Text Only | Print | Product List | Glossary On
Versions: 1 2 3 4 5 6 7 8 9 10 11 12 13 14 15 16 17 18 19 20 21 22 23 24 25 26 27 28 29 30 31 32 33 34 35 36 37 38 39 40 41 42 43 44 45 46 47 48 49 50
000
ASUS44 KMOB 301410
RWRMOB
REGIONAL WEATHER ROUNDUP
NATIONAL WEATHER SERVICE MOBILE AL
900 AM CDT TUE SEP 30 2014

NOTE: "FAIR" INDICATES FEW OR NO CLOUDS BELOW 12,000 FEET WITH NO
      SIGNIFICANT WEATHER AND/OR OBSTRUCTIONS TO VISIBILITY.

  * THESE STATIONS ARE PART OF THE UNIVERSITY OF SOUTH ALABAMA
    MESONET AND ARE NOT UNDER NWS OR FAA QUALITY CONTROL.

ALZ061>064-301500-
COASTAL ALABAMA

CITY           SKY/WX    TMP DP  RH WIND       PRES   REMARKS
MOBILE REG APT CLOUDY    69  69 100 NE7       29.93S FOG
BROOKLEY FIELD CLOUDY    71  70  96 NE7       29.94S
USA CAMPUS*      N/A     70  70 100 E3        29.93R
DOG RIVER*     NOT AVBL


CITY           SKY/WX    TMP DP  RH WIND       PRES   REMARKS
MOUNT VERNON*    N/A     70  68  94 CALM      29.94S
SARALAND*      NOT AVBL
BAY MINETTE*   NOT AVBL
LOXLEY*          N/A     72  70  94 NE6       29.93S
ROBERTSDALE*     N/A     72  70  94 SE3       29.93S
FAIRHOPE*        N/A     70  70 100 NE9       29.92S
ELBERTA*         N/A     72  70  94 NE5       29.91R
FOLEY*         NOT AVBL
GRAND BAY*       N/A     72  70  94 N5        29.91R
DAUPHIN ISLND* NOT AVBL
BON SCOUR NWR* NOT AVBL
GULF SHORES    CLOUDY    71  70  95 NE5       29.91S

$$

ALZ051>060-301500-
INTERIOR SOUTHWEST AND SOUTH CENTRAL ALABAMA

CITY           SKY/WX    TMP DP  RH WIND       PRES   REMARKS
GREENVILLE     CLOUDY    71  66  84 NE5       29.95S
EVERGREEN      CLOUDY    73  69  87 NE6       29.95R
CASTLEBERRY*   NOT AVBL
ATMORE*          N/A     72  70  94 NE6       29.95S
DIXIE*         NOT AVBL
ANDALUSIA/OPP  CLOUDY    75  67  76 E3        29.94R
ANDALUSIA*     NOT AVBL
FLORALA APT    CLOUDY    73  68  84 N7        29.95R
FLORALA*         N/A     72  66  83 N5        29.90S

$$

FLZ001>006-301500-
WESTERN FLORIDA PANHANDLE

CITY           SKY/WX    TMP DP  RH WIND       PRES   REMARKS
PENSACOLA      CLOUDY    73  68  84 NE7       29.92R
NAS PENSACOLA  CLOUDY    74  70  87 NE9       29.91R
MILTON         PTSUNNY   73  68  84 VRB5      29.93R
WHTNG S FIELD  CLOUDY    75  69  81 NE8       29.93R


CITY           SKY/WX    TMP DP  RH WIND       PRES   REMARKS
WALNUT HILL*   NOT AVBL
JAY*             N/A     72  68  88 E5        29.94S
DUKE FIELD     CLOUDY    73  71  95 NE7       29.92R
CRESTVIEW      CLOUDY    74  70  87 NE6       29.94R
VALPARAISO     CLOUDY    74  69  85 NE6       29.91R
DESTIN         CLOUDY    75  70  84 NE6       29.91R

$$

MSZ076-079-301500-
INTERIOR SOUTHEAST MISSISSIPPI

CITY           SKY/WX    TMP DP  RH WIND       PRES   REMARKS
LEAKESVILLE*     N/A     68  68 100 E3        29.94S
AGRICOLA*      NOT AVBL

$$

MARINE OBSERVATIONS

STATION/POSITION TIME  TEMP    WIND        PRES    WAVE
                       AIR SEA DIR/SP/G            HT/PER
                 (UTC) (F)     (DEG/KT/KT) (MB)    (FT/S)
PASCAGOULA       1400   75      50/  7/ 10 1012.6F
PETIT BOIS ISLND 1400   75      60/  9/ 12 1013.0S
GRAND BAY        1300   72      40/  5     1013.0S
KATRINA CUT      1300   74      70/ 13     1013.2R
CEDAR POINT      1300   71      60/  9     1013.2R
E DAUPHIN ISLAND 1400   72      40/ 11/ 12 1013.0R
MIDDLE BAY LIGHT 1300   70      50/ 11     1012.9R
USCG MOBILE BAY  1400   70 79              1012.4R
STATE DOCKS      1400   72 80              1013.2R
MEAHER PARK      1300   70      60/  4     1013.2S
WEEKS BAY        1300   71                   N/A
FORT MORGAN      1400   73      70/ 12/ 15 1012.4R
12 S ORANGE BCH  1400   76 82   50/ 14/ 17 1012.4R   2/ 4
PENSACOLA BAY    1400   74 78   40/  4/  9 1013.2S
64 S DAUPHIN ISL 1307   78 82  130/  6/  8 1012.3R   2/ 4
67 S FORT MORGAN 1300   80                 1011.9

$$

SELECTED LOCATIONS ACROSS THE REGION

CITY           SKY/WX    TMP DP  RH WIND       PRES   REMARKS
NEW ORLEANS    MOSUNNY   80  72  76 NE8       29.90R
GULFPORT       SUNNY     77  71  82 E8        29.90S
PASCAGOULA AP  CLOUDY    74  71  91 NE6       29.92R
PASCAGOULA*      N/A     73  72  94 NE5       29.91R
HATTIESBURG    SUNNY     74  70  87 VRB3      29.94R
LAUREL         SUNNY     73  68  83 E5        29.95R
MERIDIAN       CLOUDY    71  68  90 E6        29.95S
JACKSON        SUNNY     76  69  79 CALM      29.94R
MONTGOMERY     CLOUDY    72  66  81 E7        29.96S
TROY           CLOUDY    71  66  84 NE7       29.96S
KINSTON*       NOT AVBL
GENEVA*          N/A     72  66  83 NE10      29.95R
ASHFORD*       NOT AVBL
DOTHAN         CLOUDY    70  66  88 NE6       29.97R
PANAMA CITY    CLOUDY    74  69  85 N5        29.90R

$$




USA.gov is the U.S. government's official web portal to all federal, state and local government web resources and services.